Regional Weather Roundup
Issued by NWS Little Rock, AR

Home | Current Version | Previous Version | Graphics & Text | Print | Product List | Glossary On
Versions: 1 2 3 4 5 6 7 8 9 10 11 12 13 14 15 16 17 18 19 20 21 22 23 24 25 26 27 28 29 30 31 32 33 34 35 36 37 38 39 40 41 42 43 44 45 46 47 48 49 50
592
ASUS44 KLZK 120105
RWRLZK

WEATHER ROUNDUP FOR ARKANSAS
NATIONAL WEATHER SERVICE LITTLE ROCK AR
700 PM CST THU FEB 11 2016

NOTE: "FAIR" INDICATES FEW OR NO CLOUDS BELOW 12,000 FEET WITH NO
SIGNIFICANT WEATHER AND/OR OBSTRUCTIONS TO VISIBILITY.

ARZ001-003-010-029-120200-
NORTHWEST ARKANSAS

CITY           SKY/WX    TMP DP  RH WIND       PRES   REMARKS
FAYETTEVILLE   MOCLDY    46  26  45 CALM      30.14F
FORT SMITH     PTCLDY    53  28  38 E8        30.15R
HARRISON       MOCLDY    42  21  43 SE6       30.16F
BENTONVILLE    PTCLDY    46  23  39 SE6       30.15F
ROGERS         PTCLDY    45  25  45 E6        30.15R
SILOAM SPGS    MOCLDY    48  23  37 SE6       30.15S
HIGHFILL       MOCLDY    47  26  44 E6        30.13S
SPRINGDALE     MOCLDY    46  25  42 E7        30.16F
$$

ARZ004-005-016-120200-
NORTH CENTRAL ARKANSAS

CITY           SKY/WX    TMP DP  RH WIND       PRES   REMARKS
BATESVILLE     CLOUDY    41  21  45 E10       30.25F
FLIPPIN        PTCLDY    45  18  33 E3        30.17S
MTN HOME       CLOUDY    43  20  39 E5        30.18F
$$

ARZ040-041-120200-
WEST CENTRAL ARKANSAS

CITY           SKY/WX    TMP DP  RH WIND       PRES   REMARKS
MENA           CLEAR     55  34  44 E5        30.15R
MOUNT IDA      PTCLDY    48  31  51 CALM      30.15R
$$

ARZ009-017-025-026-028-120200-
NORTHEAST ARKANSAS

CITY           SKY/WX    TMP DP  RH WIND       PRES   REMARKS
CORNING        FAIR      37  23  56 E12       30.27F
JONESBORO      CLOUDY    38  24  57 NE13      30.27R
NEWPORT        CLOUDY    39  27  62 NE10      30.27S
WALNUT RIDGE   PTCLDY    37  21  52 E14       30.25F
BLYTHEVILLE    CLOUDY    38  26  62 N12       30.29R
$$

ARZ022-023-033-042-044-120200-
CENTRAL ARKANSAS

CITY           SKY/WX    TMP DP  RH WIND       PRES   REMARKS
LITTLE ROCK    CLOUDY    43  25  49 NE8       30.23R
N LITTLE ROCK  MOCLDY    44  27  52 NE9       30.23R
JACKSONVILLE   CLOUDY    44  25  48 NE9       30.23R
SEARCY         PTCLDY    42  27  55 NE12      30.26R
HOT SPRINGS    PTCLDY    49  27  42 E9        30.19R
RUSSELLVILLE   MOCLDY    47  26  44 E5        30.19R
CLINTON        FAIR      45  25  45 CALM      30.22F
$$

ARZ036-120200-
EAST ARKANSAS

CITY           SKY/WX    TMP DP  RH WIND       PRES   REMARKS
WEST MEMPHIS   PTCLDY    41  28  60 N10       30.22R HAZE
$$

ARZ050-053-066-070-073-120200-
SOUTHWEST ARKANSAS

CITY           SKY/WX    TMP DP  RH WIND       PRES   REMARKS
ARKADELPHIA    FAIR      49  32  52 E6        30.18R
CAMDEN         CLEAR     48  30  49 NE7       30.17R
TEXARKANA      CLEAR     58  37  45 NE8       30.12R
EL DORADO      CLEAR     54  34  46 NE8       30.14R
DE QUEEN       CLEAR     58  37  45 E9        30.12R
$$

ARZ056-057-069-120200-
SOUTHEAST ARKANSAS

CITY           SKY/WX    TMP DP  RH WIND       PRES   REMARKS
PINE BLUFF     PTCLDY    44  30  57 N9        30.20R
STUTTGART      PTCLDY    43  28  56 N13       30.22R
MONTICELLO     CLEAR     50  32  50 VRB5      30.16S

$$






USA.gov is the U.S. government's official web portal to all federal, state and local government web resources and services.